www.pogodaiklimat.ru

Погода и климат >> Архив погоды >> Россия >> Якутия >> Оленек


АРХИВ ПОГОДЫ в Оленеке

Время (UTC), дата Ветер
(напр.,м/с)
 
Видим.   Явления Облачность Т
(С)
Тd
(С)
f
(%)
Тe
(С)
Тes
(С)
Комфортность P
(гПа)
Po
(гПа)
Тmin
(С)
Tmax
(С)
R
(мм)
R24
(мм)
S
(см)
21 19.03 С 1 н/о н/о -26.8 -29.8 76 -31 -31 опасность
обморожения
1022.0 991.4
00 20.03 штиль 0 50 км 10/0
[Ac As Cs]
-26.6 -29.7 75 -27 -26 1021.8 991.2 -27.8 41
03 20.03 З 1 50 км в посл. час снег 10/0
[Ac As Cs]
-21.3 -25.3 70 -24 -22 1021.0 991.1
06 20.03 З 2 50 км {снег} 10/0
[Cs]
-15.0 -20.1 65 -20 -18 1020.1 991.0
09 20.03 З 1 50 км 6/0
[Cs]
-11.4 -18.6 55 -14 -13 1020.2 991.5
12 20.03 штиль 0 н/о н/о -14.5 -18.6 71 -15 -15 1021.1 992.0 -11.3
15 20.03 штиль 0 н/о н/о -17.4 -19.8 82 -17 -17 1021.6 992.1
18 20.03 СЗ 1 н/о н/о -21.6 -24.1 80 -25 -25 1022.0 992.1
21 20.03 СЗ 1 н/о н/о -23.0 -25.7 78 -26 -26 1022.1 992.0
00 21.03 З 1 50 км в посл. час снег 10/0
[Ac trans Cs]
-24.9 -28.1 75 -28 -28 1021.8 991.5 -25.4 0.0 41
03 21.03 штиль 0 50 км 4/0
[Ci fib]
-17.7 -20.3 80 -18 -14 1020.6 991.2
06 21.03 З 1 50 км 5/0
[Ci fib]
-11.7 -18.9 55 -14 -11 1018.3 989.5
09 21.03 Ю 3 50 км 8/0
[Ci fib]
-9.6 -16.0 60 -15 -15 1015.8 987.3
12 21.03 Ю 3 н/о н/о -10.4 -15.6 66 -16 -16 1012.5 984.1 -9.6
15 21.03 Ю 4 н/о н/о -9.9 -15.6 63 -17 -17 1008.2 980.0
18 21.03 Ю 4 н/о н/о -10.0 -12.0 85 -17 -17 1004.1 976.0
21 21.03 Ю 4 н/о н/о -9.5 -11.0 89 -16 -16 999.3 971.4
00 22.03 ЮЗ 3 2000 м слаб. снег {метель} 10/8 150 м
[Frnb As op]
-8.7 -9.4 95 -15 -15 996.1 968.4 -10.7 1 41
03 22.03 ЮЗ 3 10 км слаб. снег 10/3 300 м
[Sc As op Cs]
-6.3 -8.6 84 -12 -11 994.5 967.0
06 22.03 З 4 4000 м слаб. ливневой снег 10/6 360 м
[Cb cap Ac As Cs]
-5.2 -8.9 75 -11 -11 994.0 966.7
09 22.03 СЗ 3 10 км слаб. ливневой снег 10/5 300 м
[Cb cap Ac trans Cs]
-5.7 -8.3 82 -11 -11 994.8 967.4
12 22.03 С 7
{11}
н/о н/о -11.6 -14.4 80 -21 -21 996.7 968.6 -5.0
15 22.03 С 5
{12}
н/о н/о -18.0 -21.7 73 -28 -28 1001.0 972.1
18 22.03 СЗ 4 н/о н/о -20.5 -24.9 68 -30 -30 1003.6 974.4
21 22.03 СЗ 2 н/о н/о -22.7 -26.9 68 -29 -29 1006.0 976.4
00 23.03 С 4 н/о н/о -22.4 -26.8 67 -32 -32 опасность
обморожения
1007.8 978.2 -23.9
03 23.03 С 5 н/о н/о -20.7 -26.0 62 -31 -31 опасность
обморожения
1009.6 980.1
06 23.03 С 7-10
{12}
н/о н/о -18.9 -24.7 60 -30 -30 1010.9 981.6
09 23.03 С 5
{11}
н/о н/о -19.0 -24.5 62 -29 -29 1013.3 983.9
12 23.03 СЗ 2 н/о н/о -21.7 -25.9 69 -28 -28 1015.8 986.0 -18.3
15 23.03 СЗ 2 н/о н/о -23.5 -27.6 69 -30 -30 1017.0 987.0
18 23.03 СЗ 2 н/о н/о -25.1 -28.6 72 -32 -32 опасность
обморожения
1018.2 987.9
21 23.03 СЗ 3 н/о н/о -26.7 -29.5 77 -36 -36 опасность
обморожения
1019.3 988.8
00 24.03 СЗ 2 н/о н/о -27.0 -29.9 76 -34 -34 опасность
обморожения
1019.8 989.3 -27.4
03 24.03 З 2 н/о н/о -23.3 -28.0 65 -30 -30 1019.9 989.8
06 24.03 З 2 н/о н/о -18.6 -25.7 54 -24 -24 1019.5 989.9
09 24.03 З 1 н/о н/о -16.8 -24.9 49 -20 -20 1019.7 990.4
12 24.03 З 1 н/о н/о -19.7 -25.7 59 -23 -23 1020.5 990.8 -16.8
15 24.03 штиль 0 н/о н/о -20.8 -25.4 66 -21 -21 1020.4 990.6
18 24.03 штиль 0 н/о н/о -26.8 -29.5 78 -27 -27 1021.0 990.5
21 24.03 З 1 н/о н/о -30.0 -33.1 74 -34 -34 опасность
обморожения
1021.8 990.9
00 25.03 штиль 0 50 км ясно -29.5 -33.3 69 -30 -29 1022.2 991.3 -31.0 41
03 25.03 штиль 0 50 км 3/0
[Ci fib]
-21.7 -27.4 60 -22 -18 1021.4 991.4
06 25.03 штиль 0 50 км 1/0
[Ci fib]
-13.1 -22.5 45 -13 -9 1020.3 991.4
09 25.03 ЮЗ 1 50 км ясно -10.7 -20.3 45 -13 -12 1020.2 991.5
12 25.03 ЮЗ 1 н/о н/о -14.8 -23.0 50 -17 -17 1021.1 992.0 -10.7
15 25.03 штиль 0 н/о н/о -17.2 -23.2 60 -17 -17 1021.0 991.6
18 25.03 СЗ 1 н/о н/о -20.9 -25.0 70 -24 -24 1021.2 991.3
21 25.03 З 1 н/о н/о -24.8 -27.6 77 -28 -28 1021.7 991.4
00 26.03 З 2 50 км 8/0
[Ac trans Ci fib]
-24.1 -28.1 69 -31 -30 опасность
обморожения
1021.9 991.7 -25.4 41
03 26.03 СЗ 2 50 км ясно -15.2 -23.3 50 -20 -17 1021.2 992.0
06 26.03 З 1 50 км 3/0
[Ci fib]
-8.7 -17.9 47 -11 -7 1020.2 991.8
09 26.03 З 2 50 км 10/0
[Ac cast Ci sp]
-5.8 -16.8 41 -9 -9 1019.8 991.7
12 26.03 З 4 20 км 10/0
[Ac As Ci sp]
-7.5 -16.5 48 -14 -14 1020.0 991.7 -5.7
15 26.03 З 2 н/о н/о -9.0 -13.8 68 -13 -13 1019.9 991.4
18 26.03 З 2 н/о н/о -10.8 -11.3 96 -15 -15 1020.1 991.4

 

Местоположение метеостанции Оленек (Якутия, Россия): широта 68.50 долгота 112.40 высота над уровнем моря 220 м.

В архиве по умолчанию представлена погода в Оленеке за последнюю неделю. Архивные данные за месяц целиком и за предыдущие месяцы, начиная с января 2011 года, Вы можете получить, выбрав интересующий диапазон дат из раскрывающегося списка и нажав кнопку "Ввод!".


*Определитесь, кто Вы:
робот инопланетянин человек

Внимание! Время в таблицах - всемирное. Для получения местного времени необходимо прибавить поправку, которая равна 9 ч.

Смотрите также архив погоды в соседних городах и на ближайших метеорологических станциях:

Погода в Джалинде (Якутия, Россия) (191 км)
Погода в Полярном (Якутия, Россия) (197 км)
Погода в Ярольине (Якутия, Россия) (224 км)
Погода в Сухане (Якутия, Россия) (240 км)
Погода в Шелагонцах (Якутия, Россия) (262 км)
Погода в Айхале (Якутия, Россия) (289 км)
Погода в Эйке (Якутия, Россия) (349 км)
Погода в Саскылахе (Якутия, Россия) (391 км)
Погода в Хабардино (Якутия, Россия) (434 км)
Погода в Джарджане (Якутия, Россия) (470 км)

Пояснения к столбцам:

Ветер - указаны скорость ветра в м/с - средняя за 10 мин, порывы в срок и между сроками (в фигурных скобках) и направление, откуда дует ветер: С - северный, СВ - северо-восточный, В - восточный, ЮВ - юго-восточный, Ю - южный, ЮЗ - юго-западный, З - западный, СЗ - северо-западный.
Видимость - горизонтальная дальность видимости в метрах или километрах. При видимости от 1 до 10 км при отсутствии осадков обычно наблюдается дымка, при ухудшении видимости до 1 км и менее - туман. В сухую погоду видимость может ухудшаться дымом, пылью или мглою.
Явления - указаны атмосферные явления, наблюдавшиеся в срок или в последний час перед сроком; фигурными скобками обозначены явления, наблюдавшиеся между сроками (за 1-3 часа до срока); квадратными скобками обозначены град или гололедные отложения с указанием их диаметра в мм.
Облачность - указаны через наклонную черту общая и нижняя облачность в баллах и высота нижней границы облаков в метрах; квадратными скобками обозначены формы облаков: Ci - перистые, Cs - перисто-слоистые, Cc - перисто-кучевые, Ac - высококучевые, As - высокослоистые, Sc - слоисто-кучевые, Ns - слоисто-дождевые, Cu - кучевые, Cb - кучево-дождевые. Подробнее классификацию облаков см. в Атласе облаков (PDF).
T - Температура воздуха - температура, измеренная на высоте 2 м над землей.
Td - Температура точки росы - температура, при понижении до которой содержащийся в воздухе водяной пар достигнет насыщения.
f - Относительная влажность воздуха - влажноcть воздуха, измеренная на высоте 2 м над землей.
Te - Эффективная температура - температура, которую ощущает одетый по сезону человек в тени. Характеристика душности погоды. При расчете учитывается влияние влажности воздуха и скорости ветра на теплоощущения человека.
Tes - Эффективная температура на солнце - температура, которую ощущает человек, с поправкой на солнечный нагрев. Характеристика знойности погоды. Зависит от высоты солнца над горизонтом, облачности и скорости ветра. Ночью, в пасмурную погоду, а также при ветре 12 м/с и более поправка равна нулю.
P - Атмосферное давление - приведенное к уровню моря атмосферное давление.
Po - Атмосферное давление - измеренное на уровне метеостанции атмосферное давление.
Tmin - Минимальная температура - минимум температуры воздуха на высоте 2 м над землей.
Tmax - Максимальная температура - максимум температуры воздуха на высоте 2 м над землей.
R - Количество осадков - Количество выпавших осадков за период времени, мм. При наведении курсора мыши на число - период времени, за который выпало указанное количество осадков.
R24 - Количество осадков - Количество выпавших осадков за 24 часа, мм.
S - Снежный покров - Высота снежного покрова, см. При наведении курсора мыши на число - состояние снежного покрова и степень покрытия местности в баллах.